Location: Newark
(32.9167°N, 112.9667°W)
Time: 04:17:55
(UTC+00:00)

N. Korean satellite - Pass Details

Date: 24 October 2019
Orbit: 456 x 506 km, 97.2° (Epoch: 12 November)

Event Time Altitude Azimuth Distance (km) Brightness Sun altitude
Rises 12:34:10 0° 30° (NNE) 2,579 10.6 -15.1°
Reaches altitude 10° 12:36:43 10° 49° (NE) 1,700 10.0 -14.6°
Maximum altitude 12:39:22 19° 96° (E) 1,243 9.8 -14.0°
Drops below altitude 10° 12:42:02 10° 142° (SE) 1,705 10.0 -13.4°
Sets 12:44:35 0° 161° (SSE) 2,589 10.6 -12.9°
